If you wish to contribute or participate in the discussions about articles you are invited to join SKYbrary as a registered user

 Actions

Loreto International Airport

From SKYbrary Wiki

MMLT
Airport
ICAO: MMLT – IATA: LTO
Summary
Name Loreto International Airport
Region South America and Caribbean
Territory Mexico MX.gif
Location Loreto Municipality, Baja California Sur
Serving Loreto
Elevation 10.363 m
34 ft
34 ft10.363 m
Type medium airport
Coordinates 25° 59' 21.10" N, 111° 20' 54.10" W
Runways
Designator Length Width Surface ROPS
16/34 2200 m7,217.848 ft
45 m147.638 ft
ASP yes/yes


METAR
Observation MMLT 122355Z 07007KT 10SM SKC 36/26 A2972 RMK SLP064
Station Loreto, B. C. S.
Date/Time 12 August 2020 23:55:00
Wind direction 70°
Wind speed 07 kts
Lowest cloud amount n/a
Temperature 36°C
Dew point 26°C
Humidity 56%
QNH hPa
Weather condition n/a

Loreto International Airport is an international airport located in the city of Loreto, in Loreto Municipality of Baja California Sur state, northwestern Mexico.

Climatology

Hot Desert Climate (Köppen climate classification BWh)

Maps

Terrain

Loading map...

Airport Layout

Loading map...


Accidents & Serious Incidents at or in vicinity of MMLT

None on SKYbrary